Location: Lombard
(41.8800°N, 88.0080°W)
Time: 01:56:11
(UTC-05:00)

Vanguard 3 - Pass Details

Date: 05 February 2023
Orbit: 508 x 3249 km, 33.4° (Epoch: 31 March)

Event Time Altitude Azimuth Distance (km) Brightness Sun altitude
Rises 19:07:28 0° 249° (WSW) 4,064 12.0 -21.8°
Reaches altitude 10° 19:09:49 10° 244° (WSW) 3,376 11.2 -22.2°
Maximum altitude 19:18:34 56° 169° (S) 2,248 9.2 -23.8°
Enters shadow 19:25:23 33° 111° (ESE) 3,497 9.8 -25.1°
